Hourly Data Report for January 20, 2022

ST. JOHN'S INTL A
NEWFOUNDLAND
Current Station Operator: NAVCAN

47°37'07.000" N
52°45'09.000" W
140.50 m
8403505
71801
YYT

Download Data

Hourly Data (January 2022)
Hourly Data Report for January 20, 2022
TIME
LST
Temp Definition
°C
Dew Point Definition
°C
Rel Hum Definition
%
Precip. Amount Definition
mm

Wind Dir Definition
10's deg

Wind Spd Definition
km/h
Visibility Definition
km
Stn Press Definition
kPa
Hmdx Definition


Wind Chill Definition


Weather Definition


00:30 -3.8 -7.9 73   28 51 24.1 99.90   -13 LegendNANA
01:30 -3.4 -7.3 74   28 48 24.1 99.96   -13 LegendNANA
02:30 -3.2 -8.0 70   27 46 24.1 100.10   -12 Mostly Cloudy
03:30 -3.2 -8.1 69   28 41 24.1 100.17   -12 LegendNANA
04:30 -2.8 -6.3 77   27 32 24.1 100.26   -10 LegendNANA
05:30 -2.7 -6.3 76   26 27 24.1 100.34   -10 Mostly Cloudy
06:30 -2.7 -5.8 79   23 11 24.1 100.35   -7 LegendNANA
07:30 -2.1 -5.2 80   21 20 24.1 100.33   -8 LegendNANA
08:30 -1.7 -5.0 78   20 25 24.1 100.31   -8 Cloudy
09:30 -0.8 -3.7 81   20 34 24.1 100.23   -8 Snow Showers
10:30 0.5 -1.3 88   19 47 12.9 100.17     Snow Showers
11:30 1.3 0.4 94   20 36 19.3 100.06     Snow Showers
12:30 3.8 3.0 94   22 35 12.9 99.93     Rain
13:30 5.1 4.0 92   22 37 24.1 99.87     Rain
14:30 5.9 5.0 93   22 35 19.3 99.79     Rain
15:30 5.8 4.9 94   22 35 19.3 99.78     Rain
16:30 6.4 5.7 95   23 32 19.3 99.78     Drizzle
17:30 6.7 5.9 95   23 29 9.7 99.79     Rain, Fog
18:30 7.2 6.2 94   23 35 9.7 99.82     Rain, Fog
19:30 6.9 6.0 94   23 40 24.1 99.80     Rain
20:30 6.1 5.2 94   25 33 24.1 99.79     Rain
21:30 5.6 4.7 94   25 30 24.1 99.77     Rain
22:30 5.6 4.8 94   25 31 24.1 99.83     Rain
23:30 4.7 3.9 95   25 28 24.1 99.79     Rain

Notes on Data Quality.

Legend

  • E = Estimated
  • M = Missing
  • NA = Not Available*
  • [empty] = Indicates an unobserved value
Date modified: